| time (UTC) | temp F | wind direction | speed MPH | gust MPH | rain 1hr in | rain 24hr in | rain mn in | humidity % | barometer mb |
| 20260510173515 | 58 | 226 | 18.0 | 23.0 | 0.00 | 0.00 | 0.00 | 77 | 1028.6 |
| 20260510172516 | 58 | 223 | 12.0 | 20.0 | 0.00 | 0.00 | 0.00 | 77 | 1028.7 |
| 20260510171516 | 57 | 215 | 11.0 | 16.0 | 0.00 | 0.00 | 0.00 | 78 | 1028.8 |
| 20260510165516 | 57 | 207 | 13.0 | 18.0 | 0.00 | 0.00 | 0.00 | 79 | 1028.6 |
| 20260510164517 | 57 | 217 | 14.0 | 22.0 | 0.00 | 0.00 | 0.00 | 80 | 1028.7 |
| 20260510161516 | 56 | 223 | 13.0 | 19.0 | 0.00 | 0.00 | 0.00 | 79 | 1028.5 |
| 20260510155615 | 56 | 220 | 15.0 | 24.0 | 0.00 | 0.00 | 0.00 | 80 | 1028.6 |
| 20260510154615 | 56 | 219 | 12.0 | 18.0 | 0.00 | 0.00 | 0.00 | 80 | 1028.3 |
| 20260510153616 | 56 | 227 | 16.0 | 21.0 | 0.00 | 0.00 | 0.00 | 81 | 1028.5 |
| 20260510152616 | 56 | 221 | 16.0 | 20.0 | 0.00 | 0.00 | 0.00 | 81 | 1027.9 |
| 20260510151614 | 56 | 217 | 12.0 | 17.0 | 0.00 | 0.00 | 0.00 | 81 | 1027.9 |
| 20260510150616 | 56 | 226 | 12.0 | 16.0 | 0.00 | 0.00 | 0.00 | 81 | 1027.9 |
| 20260510145615 | 56 | 223 | 13.0 | 18.0 | 0.00 | 0.00 | 0.00 | 81 | 1027.9 |
| 20260510144614 | 56 | 221 | 10.0 | 15.0 | 0.00 | 0.00 | 0.00 | 81 | 1028.0 |
| 20260510143713 | 56 | 224 | 13.0 | 16.0 | 0.00 | 0.00 | 0.00 | 82 | 1027.9 |
| 20260510142715 | 55 | 226 | 10.0 | 16.0 | 0.00 | 0.00 | 0.00 | 83 | 1028.0 |
| 20260510140714 | 55 | 229 | 13.0 | 20.0 | 0.00 | 0.00 | 0.00 | 82 | 1027.7 |
| 20260510135715 | 56 | 225 | 9.0 | 13.0 | 0.00 | 0.00 | 0.00 | 83 | 1027.7 |
| 20260510134813 | 56 | 232 | 5.0 | 7.0 | 0.00 | 0.00 | 0.00 | 83 | 1027.6 |
| 20260510133816 | 56 | 225 | 9.0 | 11.0 | 0.00 | 0.00 | 0.00 | 83 | 1027.7 |
| 20260510132815 | 56 | 229 | 7.0 | 10.0 | 0.00 | 0.00 | 0.00 | 82 | 1027.7 |
| 20260510131816 | 56 | 232 | 5.0 | 7.0 | 0.00 | 0.00 | 0.00 | 82 | 1027.8 |
| 20260510130816 | 56 | 244 | 5.0 | 6.0 | 0.00 | 0.00 | 0.00 | 83 | 1027.7 |
| 20260510125818 | 56 | 225 | 6.0 | 9.0 | 0.00 | 0.00 | 0.00 | 83 | 1027.7 |
| 20260510123816 | 56 | 220 | 6.0 | 12.0 | 0.00 | 0.00 | 0.00 | 84 | 1027.7 |
| 20260510122815 | 56 | 233 | 5.0 | 9.0 | 0.00 | 0.00 | 0.00 | 83 | 1027.3 |
| 20260510121816 | 56 | 225 | 4.0 | 6.0 | 0.00 | 0.00 | 0.00 | 85 | 1027.5 |
| 20260510120817 | 55 | 225 | 3.0 | 5.0 | 0.00 | 0.00 | 0.00 | 87 | 1027.7 |
| 20260510115815 | 54 | 265 | 2.0 | 4.0 | 0.00 | 0.00 | 0.00 | 88 | 1027.7 |
| 20260510114716 | 54 | 232 | 3.0 | 4.0 | 0.00 | 0.00 | 0.00 | 88 | 1027.6 |
| 20260510113718 | 53 | 239 | 3.0 | 4.0 | 0.00 | 0.00 | 0.00 | 87 | 1027.3 |
| 20260510112715 | 52 | 180 | 0.0 | 0.0 | 0.00 | 0.00 | 0.00 | 87 | 1027.3 |
| 20260510111716 | 52 | 135 | 0.0 | 0.0 | 0.00 | 0.00 | 0.00 | 85 | 1027.3 |
| 20260510110714 | 52 | 135 | 0.0 | 0.0 | 0.00 | 0.00 | 0.00 | 86 | 1027.2 |
| 20260510110615 | 52 | 135 | 0.0 | 0.0 | 0.00 | 0.00 | 0.00 | 86 | 1027.2 |
| 20260510105616 | 52 | 135 | 0.0 | 0.0 | 0.00 | 0.00 | 0.00 | 86 | 1027.1 |
| 20260510104615 | 52 | 135 | 0.0 | 0.0 | 0.00 | 0.00 | 0.00 | 85 | 1026.8 |
| 20260510103616 | 53 | 135 | 1.0 | 2.0 | 0.00 | 0.00 | 0.00 | 85 | 1026.6 |
| 20260510102516 | 53 | 135 | 2.0 | 2.0 | 0.00 | 0.00 | 0.00 | 85 | 1026.7 |
| 20260510101517 | 53 | 135 | 0.0 | 0.0 | 0.00 | 0.00 | 0.00 | 84 | 1026.7 |
| 20260510100515 | 53 | 135 | 0.0 | 0.0 | 0.00 | 0.00 | 0.00 | 84 | 1027.0 |
| 20260510095614 | 53 | 135 | 0.0 | 0.0 | 0.00 | 0.00 | 0.00 | 84 | 1026.8 |
| 20260510095516 | 53 | 135 | 0.0 | 0.0 | 0.00 | 0.00 | 0.00 | 84 | 1026.8 |
| 20260510094514 | 54 | 135 | 0.0 | 0.0 | 0.00 | 0.00 | 0.00 | 84 | 1026.7 |
| 20260510094415 | 54 | 135 | 0.0 | 0.0 | 0.00 | 0.00 | 0.00 | 84 | 1026.6 |
| 20260510093415 | 54 | 135 | 0.0 | 0.0 | 0.00 | 0.00 | 0.00 | 82 | 1026.8 |
| 20260510092416 | 54 | 135 | 0.0 | 0.0 | 0.00 | 0.00 | 0.00 | 81 | 1026.5 |
| 20260510091514 | 54 | 135 | 0.0 | 0.0 | 0.00 | 0.00 | 0.00 | 81 | 1026.4 |
| 20260510090516 | 54 | 135 | 0.0 | 0.0 | 0.00 | 0.00 | 0.00 | 79 | 1026.3 |
| 20260510084516 | 55 | 135 | 0.0 | 0.0 | 0.00 | 0.00 | 0.00 | 80 | 1026.4 |
| 20260510083515 | 55 | 135 | 1.0 | 2.0 | 0.00 | 0.00 | 0.00 | 81 | 1026.6 |
| 20260510082515 | 56 | 135 | 0.0 | 0.0 | 0.00 | 0.00 | 0.00 | 79 | 1026.6 |
| 20260510081516 | 56 | 135 | 0.0 | 0.0 | 0.00 | 0.00 | 0.00 | 79 | 1026.6 |
| 20260510080516 | 56 | 135 | 0.0 | 0.0 | 0.00 | 0.00 | 0.00 | 77 | 1026.7 |
| 20260510075518 | 56 | 135 | 0.0 | 0.0 | 0.00 | 0.00 | 0.00 | 75 | 1026.6 |
| 20260510073516 | 57 | 135 | 0.0 | 0.0 | 0.00 | 0.00 | 0.00 | 73 | 1026.7 |
| 20260510070514 | 58 | 135 | 0.0 | 0.0 | 0.00 | 0.00 | 0.00 | 72 | 1026.6 |
| 20260510065521 | 58 | 135 | 0.0 | 1.0 | 0.00 | 0.00 | 0.00 | 72 | 1026.5 |
| 20260510064519 | 58 | 135 | 0.0 | 0.0 | 0.00 | 0.00 | 0.00 | 71 | 1026.7 |
| 20260510062617 | 59 | 135 | 0.0 | 1.0 | 0.00 | 0.00 | 0.00 | 69 | 1026.6 |
| 20260510061619 | 59 | 135 | 0.0 | 0.0 | 0.00 | 0.00 | 0.00 | 68 | 1026.5 |
| 20260510060516 | 60 | 135 | 1.0 | 1.0 | 0.00 | 0.00 | 0.00 | 68 | 1026.4 |
| 20260510055517 | 60 | 135 | 0.0 | 1.0 | 0.00 | 0.00 | 0.00 | 68 | 1026.3 |
| 20260510054518 | 60 | 135 | 0.0 | 0.0 | 0.00 | 0.00 | 0.00 | 68 | 1026.3 |
| 20260510053519 | 60 | 135 | 0.0 | 0.0 | 0.00 | 0.00 | 0.00 | 68 | 1026.3 |
| 20260510051519 | 62 | 135 | 0.0 | 0.0 | 0.00 | 0.00 | 0.00 | 64 | 1026.0 |
| 20260510045617 | 63 | 135 | 0.0 | 0.0 | 0.00 | 0.00 | 0.00 | 63 | 1025.7 |
| 20260510044618 | 63 | 135 | 1.0 | 1.0 | 0.00 | 0.00 | 0.00 | 61 | 1025.6 |
| 20260510044518 | 63 | 135 | 0.0 | 1.0 | 0.00 | 0.00 | 0.00 | 61 | 1025.6 |
| 20260510043520 | 64 | 135 | 0.0 | 2.0 | 0.00 | 0.00 | 0.00 | 59 | 1025.6 |
| 20260510042619 | 64 | 135 | 2.0 | 3.0 | 0.00 | 0.00 | 0.00 | 62 | 1025.4 |
| 20260510041618 | 65 | 247 | 0.0 | 0.0 | 0.00 | 0.00 | 0.00 | 63 | 1025.4 |
| 20260510041517 | 65 | 247 | 0.0 | 0.0 | 0.00 | 0.00 | 0.00 | 63 | 1025.4 |
| 20260510040519 | 65 | 247 | 0.0 | 2.0 | 0.00 | 0.00 | 0.00 | 63 | 1025.2 |
| 20260510035616 | 66 | 247 | 0.0 | 1.0 | 0.00 | 0.00 | 0.00 | 59 | 1025.1 |
| 20260510034619 | 68 | 247 | 1.0 | 2.0 | 0.00 | 0.00 | 0.00 | 51 | 1024.8 |
| 20260510032716 | 70 | 270 | 2.0 | 2.0 | 0.00 | 0.00 | 0.00 | 47 | 1024.5 |
| 20260510031718 | 72 | 225 | 2.0 | 4.0 | 0.00 | 0.00 | 0.00 | 43 | 1024.5 |
| 20260510024819 | 73 | 180 | 0.0 | 0.0 | 0.00 | 0.00 | 0.00 | 42 | 1024.4 |
| 20260510022819 | 74 | 200 | 1.0 | 5.0 | 0.00 | 0.00 | 0.00 | 42 | 1024.4 |
| 20260510021819 | 74 | 222 | 3.0 | 4.0 | 0.00 | 0.00 | 0.00 | 44 | 1024.3 |
| 20260510020817 | 75 | 202 | 4.0 | 11.0 | 0.00 | 0.00 | 0.00 | 44 | 1024.3 |
| 20260510015908 | 75 | 202 | 2.0 | 8.0 | 0.00 | 0.00 | 0.00 | 44 | 1024.4 |
| 20260510014818 | 75 | 225 | 5.0 | 7.0 | 0.00 | 0.00 | 0.00 | 45 | 1024.4 |
| 20260510013819 | 75 | 225 | 4.0 | 7.0 | 0.00 | 0.00 | 0.00 | 45 | 1024.4 |
| 20260510012718 | 76 | 214 | 4.0 | 10.0 | 0.00 | 0.00 | 0.00 | 46 | 1024.5 |
| 20260510011721 | 76 | 200 | 3.0 | 11.0 | 0.00 | 0.00 | 0.00 | 46 | 1024.6 |
| 20260510010720 | 75 | 200 | 4.0 | 10.0 | 0.00 | 0.00 | 0.00 | 46 | 1024.7 |
| 20260510005818 | 75 | 205 | 3.0 | 9.0 | 0.00 | 0.00 | 0.00 | 48 | 1024.8 |
| 20260510003816 | 76 | 225 | 11.0 | 15.0 | 0.00 | 0.00 | 0.00 | 44 | 1024.7 |
| 20260510002824 | 76 | 223 | 11.0 | 15.0 | 0.00 | 0.00 | 0.00 | 45 | 1024.7 |
| 20260510001919 | 77 | 225 | 10.0 | 14.0 | 0.00 | 0.00 | 0.00 | 44 | 1024.8 |
| 20260510001017 | 75 | 222 | 7.0 | 10.0 | 0.00 | 0.00 | 0.00 | 47 | 1024.7 |
| 20260510000017 | 73 | 225 | 7.0 | 10.0 | 0.00 | 0.00 | 0.00 | 43 | 1024.8 |
| 20260509235019 | 71 | 225 | 6.0 | 7.0 | 0.00 | 0.00 | 0.00 | 44 | 1024.7 |
| 20260509234018 | 70 | 45 | 4.0 | 5.0 | 0.00 | 0.00 | 0.00 | 45 | 1024.8 |
| 20260509233116 | 71 | 45 | 6.0 | 7.0 | 0.00 | 0.00 | 0.00 | 46 | 1024.9 |
| 20260509232118 | 71 | 45 | 7.0 | 9.0 | 0.00 | 0.00 | 0.00 | 46 | 1025.1 |
| 20260509231118 | 72 | 45 | 6.0 | 7.0 | 0.00 | 0.00 | 0.00 | 45 | 1025.2 |
| 20260509230117 | 73 | 22 | 6.0 | 7.0 | 0.00 | 0.00 | 0.00 | 44 | 1025.4 |
| 20260509225217 | 72 | 45 | 8.0 | 9.0 | 0.00 | 0.00 | 0.00 | 44 | 1025.6 |
| 20260509225117 | 72 | 45 | 8.0 | 10.0 | 0.00 | 0.00 | 0.00 | 45 | 1025.6 |
| 20260509224118 | 72 | 39 | 8.0 | 9.0 | 0.00 | 0.00 | 0.00 | 46 | 1025.6 |
| 20260509222218 | 71 | 22 | 9.0 | 10.0 | 0.00 | 0.00 | 0.00 | 49 | 1026.0 |
| 20260509221317 | 72 | 29 | 5.0 | 6.0 | 0.00 | 0.00 | 0.00 | 46 | 1026.2 |
| 20260509215318 | 72 | 22 | 11.0 | 12.0 | 0.00 | 0.00 | 0.00 | 45 | 1026.7 |
| 20260509214317 | 72 | 24 | 10.0 | 11.0 | 0.00 | 0.00 | 0.00 | 44 | 1026.7 |
| 20260509212416 | 72 | 26 | 9.0 | 11.0 | 0.00 | 0.00 | 0.00 | 45 | 1026.9 |
| 20260509210420 | 69 | 45 | 4.0 | 5.0 | 0.00 | 0.00 | 0.00 | 53 | 1027.4 |
| 20260509205519 | 69 | 45 | 6.0 | 8.0 | 0.00 | 0.00 | 0.00 | 52 | 1027.6 |
| 20260509204616 | 70 | 22 | 7.0 | 8.0 | 0.00 | 0.00 | 0.00 | 51 | 1027.7 |
| 20260509203519 | 71 | 22 | 7.0 | 8.0 | 0.00 | 0.00 | 0.00 | 49 | 1027.9 |
| 20260509202617 | 70 | 22 | 4.0 | 6.0 | 0.00 | 0.00 | 0.00 | 48 | 1028.2 |
| 20260509201617 | 69 | 45 | 2.0 | 3.0 | 0.00 | 0.00 | 0.00 | 49 | 1028.3 |
| 20260509200618 | 69 | 45 | 3.0 | 4.0 | 0.00 | 0.00 | 0.00 | 52 | 1028.4 |
| 20260509195716 | 68 | 45 | 3.0 | 4.0 | 0.00 | 0.00 | 0.00 | 53 | 1028.6 |
| 20260509194718 | 68 | 45 | 3.0 | 4.0 | 0.00 | 0.00 | 0.00 | 52 | 1028.8 |
| 20260509193716 | 67 | 45 | 4.0 | 4.0 | 0.00 | 0.00 | 0.00 | 52 | 1029.0 |
| 20260509190723 | 65 | 45 | 3.0 | 5.0 | 0.00 | 0.00 | 0.00 | 58 | 1029.6 |
| 20260509185619 | 63 | 45 | 2.0 | 3.0 | 0.00 | 0.00 | 0.00 | 61 | 1029.8 |
| 20260509184618 | 62 | 45 | 5.0 | 6.0 | 0.00 | 0.00 | 0.00 | 65 | 1029.9 |
| 20260509183619 | 61 | 45 | 5.0 | 7.0 | 0.00 | 0.00 | 0.00 | 69 | 1030.0 |
| 20260509182618 | 61 | 45 | 5.0 | 6.0 | 0.00 | 0.00 | 0.00 | 71 | 1030.1 |
| 20260509181718 | 60 | 45 | 5.0 | 5.0 | 0.00 | 0.00 | 0.00 | 72 | 1030.5 |
| 20260509175720 | 61 | 45 | 5.0 | 5.0 | 0.00 | 0.00 | 0.00 | 68 | 1030.5 |
| 20260509174817 | 62 | 45 | 4.0 | 4.0 | 0.00 | 0.00 | 0.00 | 64 | 1030.6 |